contact:dominique.lefevre@mio.osupytheas.fr, maurice.libes@osupytheas.fr, didier.mallarino@osupytheas.fr
Project:EMSO http://www.emso-fr.org/EMSO-France
Depth: 2436.0 m
Title:EMSO Ligure Ouest : Data MII capteur AQUADOPP
Date,Latitude,Longitude,X_East,Y_North,Z_Up,Amplitude_X,Amplitude_Y,Amplitude_Z,Batterie,SoundSpeed,Heading,Pitch,Roll,Pressure,TIS,Speed,Direction
, degrees North, degrees East, m.s-1, m.s-1,m.s-1, 1, 1, 1, Volt, m.s-1, degree, degree, degree, dbar, degree_C, m.s-1, degree
2021-02-19T00:04:03,42.805,6.029,0.018,-0.039,-0.003,102.0,102.0,101.0,13.4,1505.2,324.1,-0.8,1.8,2470.469,13.28,0.042,155.2
2021-02-19T00:07:03,42.805,6.029,0.0,-0.003,0.024,101.0,102.0,100.0,13.3,1505.2,324.3,-0.8,1.8,2470.474,13.28,0.003,180.0
2021-02-19T00:10:03,42.805,6.029,0.006,-0.01,0.029,101.0,102.0,100.0,13.3,1505.2,325.9,-0.8,1.8,2470.452,13.28,0.011,149.0
2021-02-19T00:13:03,42.805,6.029,0.043,-0.019,0.042,102.0,101.0,100.0,13.4,1505.2,322.6,-0.8,1.8,2470.478,13.28,0.047,113.8
2021-02-19T00:16:03,42.805,6.029,0.052,-0.008,0.037,102.0,101.0,99.0,13.4,1505.2,324.2,-0.8,1.8,2470.455,13.28,0.052,98.7
2021-02-19T00:19:03,42.805,6.029,0.024,-0.041,0.003,101.0,101.0,100.0,13.4,1505.2,325.7,-0.8,1.8,2470.497,13.28,0.047,149.7
2021-02-19T00:22:03,42.805,6.029,0.008,-0.03,0.013,102.0,100.0,101.0,13.4,1505.2,324.7,-0.8,1.8,2470.469,13.28,0.031,165.1
2021-02-19T00:25:03,42.805,6.029,0.0,-0.011,0.013,101.0,103.0,100.0,13.4,1505.2,326.5,-0.7,1.8,2470.482,13.28,0.011,180.0
2021-02-19T00:28:03,42.805,6.029,0.03,-0.052,-0.015,101.0,101.0,101.0,13.4,1505.2,324.5,-0.7,1.8,2470.453,13.28,0.06,150.0
2021-02-19T00:31:03,42.805,6.029,0.016,-0.026,0.019,100.0,101.0,101.0,13.3,1505.2,327.8,-0.7,1.8,2470.431,13.28,0.03,148.4
2021-02-19T00:34:03,42.805,6.029,0.023,-0.024,-0.012,102.0,103.0,100.0,13.4,1505.2,323.8,-0.8,1.8,2470.445,13.28,0.033,136.2
2021-02-19T00:37:03,42.805,6.029,0.001,-0.02,0.002,102.0,102.0,100.0,13.4,1505.2,324.7,-0.8,1.8,2470.428,13.28,0.02,177.1
2021-02-19T00:40:03,42.805,6.029,0.027,-0.018,0.016,101.0,102.0,101.0,13.4,1505.2,324.8,-0.7,1.8,2470.453,13.28,0.032,123.7
2021-02-19T00:43:03,42.805,6.029,0.021,-0.013,0.012,101.0,101.0,100.0,13.3,1505.2,328.1,-0.8,1.8,2470.44,13.28,0.024,121.8
2021-02-19T00:46:03,42.805,6.029,0.022,0.025,0.026,101.0,102.0,100.0,13.4,1505.2,324.7,-0.8,1.8,2470.447,13.28,0.033,41.3
2021-02-19T00:49:03,42.805,6.029,0.023,-0.012,0.022,101.0,102.0,100.0,13.4,1505.2,322.8,-0.8,1.8,2470.448,13.28,0.025,117.6
2021-02-19T00:52:03,42.805,6.029,0.031,-0.031,0.02,103.0,103.0,100.0,13.4,1505.2,325.2,-0.8,1.8,2470.454,13.28,0.043,135.0
2021-02-19T00:55:03,42.805,6.029,0.016,-0.011,0.018,101.0,102.0,100.0,13.4,1505.2,324.5,-0.8,1.8,2470.467,13.28,0.019,124.5
2021-02-19T00:58:03,42.805,6.029,0.042,-0.038,0.017,101.0,102.0,100.0,13.4,1505.2,324.8,-0.8,1.9,2470.45,13.28,0.056,132.1
2021-02-19T01:04:03,42.805,6.029,-0.01,-0.01,0.023,102.0,102.0,99.0,13.3,1505.2,326.7,-0.8,1.8,2470.449,13.28,0.014,225.0
2021-02-19T01:07:03,42.805,6.029,0.008,-0.026,0.009,101.0,102.0,100.0,13.4,1505.2,328.1,-0.7,1.9,2470.503,13.28,0.027,162.9
2021-02-19T01:10:03,42.805,6.029,0.006,-0.039,-0.008,102.0,101.0,101.0,13.4,1505.2,327.9,-0.7,1.8,2470.455,13.28,0.039,171.3
2021-02-19T01:13:03,42.805,6.029,0.025,-0.022,-0.001,102.0,102.0,100.0,13.4,1505.2,325.6,-0.7,1.8,2470.461,13.28,0.033,131.3
2021-02-19T01:16:03,42.805,6.029,0.001,-0.021,0.042,101.0,101.0,101.0,13.4,1505.2,324.2,-0.7,1.8,2470.443,13.28,0.021,177.3
2021-02-19T01:19:03,42.805,6.029,-0.007,-0.003,0.031,101.0,102.0,101.0,13.4,1505.2,326.8,-0.7,1.8,2470.422,13.28,0.007,246.8
2021-02-19T01:22:03,42.805,6.029,0.009,-0.015,0.0,102.0,102.0,100.0,13.3,1505.2,323.4,-0.8,1.9,2470.42,13.28,0.017,149.0
2021-02-19T01:25:03,42.805,6.029,0.041,-0.027,0.028,100.0,101.0,101.0,13.4,1505.2,324.0,-0.7,1.8,2470.45,13.28,0.049,123.4
2021-02-19T01:28:03,42.805,6.029,0.023,-0.016,0.01,101.0,103.0,101.0,13.4,1505.2,323.8,-0.7,1.8,2470.413,13.28,0.028,124.8
2021-02-19T01:31:03,42.805,6.029,0.029,-0.008,0.04,101.0,100.0,100.0,13.4,1505.2,323.1,-0.7,1.9,2470.444,13.28,0.03,105.4
2021-02-19T01:34:03,42.805,6.029,0.012,-0.009,0.011,102.0,102.0,100.0,13.4,1505.2,324.4,-0.7,1.8,2470.424,13.28,0.015,126.9
2021-02-19T01:37:03,42.805,6.029,0.015,-0.007,0.039,102.0,101.0,100.0,13.4,1505.2,324.0,-0.8,1.8,2470.433,13.28,0.016,115.0
2021-02-19T01:40:03,42.805,6.029,0.032,-0.013,-0.004,102.0,101.0,102.0,13.4,1505.2,325.6,-0.7,1.8,2470.397,13.28,0.034,112.1
2021-02-19T01:43:03,42.805,6.029,0.028,-0.02,0.018,102.0,103.0,100.0,13.4,1505.2,324.8,-0.8,1.8,2470.438,13.28,0.034,125.5
2021-02-19T01:46:03,42.805,6.029,0.02,-0.009,0.009,101.0,103.0,100.0,13.4,1505.2,324.0,-0.8,1.8,2470.401,13.28,0.021,114.2
2021-02-19T01:49:03,42.805,6.029,0.041,-0.013,0.008,101.0,102.0,100.0,13.4,1505.2,324.4,-0.8,1.8,2470.411,13.28,0.043,107.6
2021-02-19T01:52:03,42.805,6.029,0.012,-0.011,0.017,100.0,102.0,101.0,13.4,1505.2,326.4,-0.7,1.8,2470.427,13.28,0.016,132.5
2021-02-19T01:55:03,42.805,6.029,0.017,-0.015,-0.006,101.0,101.0,100.0,13.4,1505.2,326.5,-0.8,1.8,2470.456,13.28,0.022,131.4
2021-02-19T01:58:03,42.805,6.029,0.032,-0.017,0.019,102.0,103.0,100.0,13.4,1505.2,327.2,-0.7,1.8,2470.436,13.28,0.036,118.0
2021-02-19T02:04:03,42.805,6.029,0.027,-0.01,0.018,102.0,101.0,100.0,13.4,1505.2,325.6,-0.8,1.8,2470.458,13.28,0.028,110.3
2021-02-19T02:07:03,42.805,6.029,0.031,-0.02,0.024,100.0,102.0,100.0,13.3,1505.2,323.0,-0.7,1.8,2470.503,13.28,0.036,122.8
2021-02-19T02:10:03,42.805,6.029,0.02,-0.032,-0.006,100.0,101.0,100.0,13.4,1505.2,323.8,-0.8,1.8,2470.437,13.28,0.037,148.0
2021-02-19T02:13:03,42.805,6.029,0.024,-0.025,0.008,101.0,101.0,101.0,13.4,1505.2,326.3,-0.8,1.9,2470.474,13.28,0.034,136.2
2021-02-19T02:16:03,42.805,6.029,0.014,-0.015,0.027,101.0,103.0,100.0,13.4,1505.2,324.4,-0.7,1.8,2470.47,13.28,0.02,137.0
2021-02-19T02:19:03,42.805,6.029,0.043,-0.045,-0.004,101.0,103.0,99.0,13.4,1505.2,324.0,-0.7,1.8,2470.427,13.28,0.062,136.3
2021-02-19T02:22:03,42.805,6.029,0.034,-0.032,0.046,102.0,100.0,101.0,13.4,1505.2,324.2,-0.7,1.8,2470.411,13.28,0.046,133.3
2021-02-19T02:25:03,42.805,6.029,-0.002,-0.005,-0.005,102.0,102.0,101.0,13.3,1505.2,326.6,-0.7,1.8,2470.444,13.28,0.005,201.8
2021-02-19T02:28:03,42.805,6.029,0.033,-0.032,0.022,102.0,101.0,100.0,13.4,1505.2,327.2,-0.7,1.8,2470.431,13.28,0.045,134.1
2021-02-19T02:31:03,42.805,6.029,0.024,-0.032,0.003,102.0,101.0,100.0,13.4,1505.2,327.1,-0.8,1.8,2470.455,13.28,0.04,143.1
2021-02-19T02:34:03,42.805,6.029,0.004,-0.016,0.004,101.0,103.0,100.0,13.4,1505.2,323.6,-0.8,1.8,2470.453,13.28,0.016,166.0
2021-02-19T02:37:03,42.805,6.029,0.022,-0.016,0.017,101.0,102.0,101.0,13.4,1505.2,326.3,-0.8,1.8,2470.407,13.28,0.027,126.0
2021-02-19T02:40:03,42.805,6.029,0.027,-0.001,0.033,101.0,103.0,100.0,13.4,1505.2,324.4,-0.8,1.8,2470.424,13.28,0.027,92.1
2021-02-19T02:43:03,42.805,6.029,0.033,-0.038,0.0,101.0,102.0,101.0,13.4,1505.2,327.8,-0.8,1.8,2470.431,13.28,0.05,139.0
2021-02-19T02:46:03,42.805,6.029,0.03,-0.027,0.043,100.0,101.0,100.0,13.4,1505.2,322.8,-0.8,1.8,2470.428,13.28,0.04,132.0
2021-02-19T02:49:03,42.805,6.029,0.032,-0.01,0.005,101.0,101.0,100.0,13.4,1505.2,325.0,-0.8,1.8,2470.441,13.28,0.033,107.4
2021-02-19T02:52:03,42.805,6.029,0.037,-0.015,0.019,101.0,102.0,100.0,13.3,1505.2,325.9,-0.7,1.8,2470.456,13.28,0.039,112.1
2021-02-19T02:55:03,42.805,6.029,0.004,-0.022,-0.002,101.0,101.0,100.0,13.4,1505.2,325.4,-0.7,1.8,2470.442,13.28,0.022,169.7
2021-02-19T02:58:03,42.805,6.029,0.023,-0.015,0.038,100.0,102.0,100.0,13.4,1505.2,325.0,-0.8,1.8,2470.442,13.28,0.027,123.1
2021-02-19T03:04:03,42.805,6.029,0.017,-0.017,0.036,100.0,101.0,100.0,13.4,1505.2,328.4,-0.7,1.8,2470.45,13.28,0.024,135.0
2021-02-19T03:07:03,42.805,6.029,0.023,-0.024,0.024,101.0,101.0,100.0,13.4,1505.2,327.1,-0.7,1.8,2470.419,13.28,0.033,136.2
2021-02-19T03:10:03,42.805,6.029,0.045,-0.045,0.009,100.0,103.0,99.0,13.4,1505.2,325.5,-0.8,1.8,2470.5,13.28,0.063,135.0
2021-02-19T03:13:03,42.805,6.029,0.003,-0.025,0.0,100.0,103.0,99.0,13.4,1505.2,327.0,-0.8,1.8,2470.474,13.28,0.025,173.2
2021-02-19T03:16:03,42.805,6.029,0.004,-0.032,0.017,101.0,100.0,101.0,13.4,1505.2,327.7,-0.7,1.8,2470.456,13.28,0.032,172.9
2021-02-19T03:19:03,42.805,6.029,0.012,-0.031,0.021,101.0,102.0,100.0,13.4,1505.2,325.9,-0.8,1.8,2470.442,13.28,0.033,158.8
2021-02-19T03:22:03,42.805,6.029,0.004,-0.011,0.025,101.0,102.0,100.0,13.4,1505.2,328.1,-0.7,1.8,2470.45,13.28,0.011,160.0
2021-02-19T03:25:03,42.805,6.029,0.04,-0.052,0.018,101.0,102.0,100.0,13.4,1505.2,324.3,-0.7,1.8,2470.475,13.28,0.065,142.4
2021-02-19T03:28:03,42.805,6.029,0.017,-0.01,0.027,102.0,103.0,100.0,13.4,1505.2,324.7,-0.8,1.8,2470.427,13.28,0.019,120.5
2021-02-19T03:31:03,42.805,6.029,0.024,-0.024,0.024,101.0,103.0,100.0,13.3,1505.2,323.6,-0.7,1.8,2470.458,13.28,0.033,135.0
2021-02-19T03:34:03,42.805,6.029,0.013,-0.035,-0.016,101.0,102.0,100.0,13.4,1505.2,326.4,-0.8,1.8,2470.448,13.28,0.037,159.6
2021-02-19T03:37:03,42.805,6.029,0.016,-0.018,0.006,102.0,102.0,101.0,13.4,1505.2,327.1,-0.8,1.8,2470.428,13.28,0.024,138.4
2021-02-19T03:40:03,42.805,6.029,0.026,-0.015,0.052,101.0,102.0,101.0,13.4,1505.2,326.8,-0.8,1.8,2470.433,13.28,0.03,120.0
2021-02-19T03:43:03,42.805,6.029,0.038,-0.016,0.016,101.0,103.0,101.0,13.4,1505.2,325.6,-0.8,1.8,2470.466,13.28,0.041,112.8
2021-02-19T03:46:03,42.805,6.029,-0.001,-0.027,0.035,102.0,101.0,101.0,13.4,1505.2,324.2,-0.8,1.8,2470.452,13.28,0.027,182.1
2021-02-19T03:49:03,42.805,6.029,0.026,-0.027,0.0,102.0,103.0,101.0,13.4,1505.2,324.7,-0.8,1.8,2470.41,13.28,0.037,136.1
2021-02-19T03:52:03,42.805,6.029,0.03,-0.019,0.011,104.0,103.0,100.0,13.4,1505.2,325.9,-0.7,1.8,2470.418,13.28,0.035,122.3
2021-02-19T03:55:03,42.805,6.029,0.052,-0.038,0.004,100.0,102.0,100.0,13.3,1505.2,328.5,-0.8,1.9,2470.416,13.28,0.064,126.2
2021-02-19T03:58:03,42.805,6.029,0.019,-0.021,0.01,99.0,103.0,102.0,13.4,1505.2,325.5,-0.8,1.8,2470.452,13.28,0.028,137.9
2021-02-19T04:04:03,42.805,6.029,0.032,-0.022,-0.002,100.0,103.0,101.0,13.4,1505.2,323.1,-0.8,1.8,2470.488,13.28,0.038,124.5
2021-02-19T04:07:03,42.805,6.029,0.018,-0.015,0.017,102.0,102.0,100.0,13.3,1505.2,326.4,-0.8,1.8,2470.472,13.28,0.023,129.8
2021-02-19T04:10:03,42.805,6.029,0.025,0.004,0.047,102.0,101.0,101.0,13.3,1505.2,324.8,-0.8,1.8,2470.467,13.28,0.025,80.9
2021-02-19T04:13:03,42.805,6.029,0.015,-0.012,0.028,99.0,103.0,101.0,13.4,1505.2,327.1,-0.8,1.8,2470.443,13.28,0.019,128.7
2021-02-19T04:16:03,42.805,6.029,0.003,-0.014,0.005,101.0,101.0,100.0,13.3,1505.2,328.3,-0.8,1.8,2470.431,13.28,0.014,167.9
2021-02-19T04:19:03,42.805,6.029,0.028,-0.015,0.015,101.0,103.0,101.0,13.4,1505.2,322.8,-0.7,1.8,2470.46,13.28,0.031,118.2
2021-02-19T04:22:03,42.805,6.029,0.039,-0.017,0.023,102.0,101.0,101.0,13.4,1505.2,323.2,-0.7,1.8,2470.435,13.28,0.042,113.5
2021-02-19T04:25:03,42.805,6.029,0.037,-0.021,0.027,100.0,102.0,100.0,13.4,1505.2,323.8,-0.7,1.9,2470.436,13.28,0.042,119.6
2021-02-19T04:28:03,42.805,6.029,0.005,-0.018,-0.011,101.0,102.0,100.0,13.4,1505.2,326.8,-0.7,1.8,2470.394,13.28,0.018,164.5
2021-02-19T04:31:03,42.805,6.029,0.014,-0.011,0.007,101.0,102.0,101.0,13.3,1505.2,326.0,-0.8,1.8,2470.404,13.28,0.017,128.2
2021-02-19T04:34:03,42.805,6.029,0.024,-0.021,-0.009,101.0,103.0,100.0,13.3,1505.2,326.2,-0.7,1.8,2470.443,13.28,0.031,131.2
2021-02-19T04:37:03,42.805,6.029,0.033,-0.01,0.022,101.0,102.0,101.0,13.4,1505.2,324.7,-0.8,1.8,2470.449,13.28,0.034,106.9
2021-02-19T04:40:03,42.805,6.029,0.0,-0.014,0.012,102.0,102.0,101.0,13.4,1505.2,324.1,-0.8,1.8,2470.42,13.28,0.014,180.0
2021-02-19T04:43:03,42.805,6.029,0.031,-0.024,0.002,103.0,101.0,101.0,13.4,1505.2,324.8,-0.8,1.8,2470.4,13.28,0.039,127.7
2021-02-19T04:46:03,42.805,6.029,0.042,-0.024,0.008,100.0,102.0,100.0,13.3,1505.2,326.5,-0.7,1.8,2470.423,13.28,0.048,119.7
2021-02-19T04:49:03,42.805,6.029,0.011,-0.029,0.011,100.0,101.0,100.0,13.3,1505.2,322.8,-0.7,1.9,2470.386,13.28,0.031,159.2
2021-02-19T04:52:03,42.805,6.029,0.03,-0.029,0.0,101.0,101.0,100.0,13.4,1505.2,324.5,-0.8,1.8,2470.398,13.28,0.041,134.0
2021-02-19T04:55:03,42.805,6.029,0.022,-0.013,0.015,101.0,100.0,100.0,13.4,1505.2,324.0,-0.7,1.8,2470.409,13.28,0.025,120.6
2021-02-19T04:58:03,42.805,6.029,0.027,-0.021,0.028,101.0,102.0,99.0,13.3,1505.2,326.0,-0.7,1.8,2470.427,13.28,0.034,127.9
2021-02-19T05:04:03,42.805,6.029,0.021,-0.042,0.036,101.0,102.0,100.0,13.4,1505.2,324.2,-0.8,1.8,2470.458,13.28,0.046,153.4
2021-02-19T05:07:03,42.805,6.029,0.011,-0.038,-0.014,101.0,102.0,100.0,13.4,1505.2,325.1,-0.7,1.8,2470.447,13.28,0.039,163.9
2021-02-19T05:10:03,42.805,6.029,0.024,-0.02,0.029,101.0,103.0,101.0,13.4,1505.2,324.7,-0.8,1.8,2470.447,13.28,0.031,129.8
2021-02-19T05:13:03,42.805,6.029,0.021,0.006,0.04,102.0,101.0,100.0,13.4,1505.2,324.9,-0.7,1.9,2470.44,13.28,0.021,74.1
2021-02-19T05:16:03,42.805,6.029,0.036,-0.004,0.034,101.0,102.0,100.0,13.4,1505.2,325.1,-0.8,1.9,2470.431,13.28,0.036,96.3
2021-02-19T05:19:03,42.805,6.029,0.017,-0.017,0.011,100.0,100.0,101.0,13.4,1505.2,326.3,-0.8,1.8,2470.435,13.28,0.024,135.0
2021-02-19T05:22:03,42.805,6.029,0.037,-0.029,0.029,101.0,101.0,102.0,13.4,1505.2,323.0,-0.8,1.8,2470.407,13.28,0.047,128.1
2021-02-19T05:25:03,42.805,6.029,0.033,-0.029,0.011,101.0,101.0,100.0,13.4,1505.2,327.9,-0.7,1.9,2470.385,13.28,0.043,131.3
2021-02-19T05:28:03,42.805,6.029,0.003,-0.027,-0.016,100.0,103.0,101.0,13.4,1505.2,327.5,-0.8,1.8,2470.399,13.28,0.027,173.7
2021-02-19T05:31:03,42.805,6.029,0.011,-0.022,0.028,101.0,101.0,102.0,13.4,1505.2,326.0,-0.8,1.9,2470.434,13.28,0.024,153.4
2021-02-19T05:34:03,42.805,6.029,0.027,-0.034,-0.025,102.0,102.0,101.0,13.4,1505.2,324.6,-0.8,1.8,2470.428,13.28,0.043,141.5
2021-02-19T05:37:03,42.805,6.029,0.034,-0.038,0.016,100.0,101.0,102.0,13.4,1505.2,326.1,-0.8,1.8,2470.383,13.28,0.05,138.2
2021-02-19T05:40:03,42.805,6.029,0.031,-0.026,0.024,103.0,101.0,101.0,13.4,1505.2,326.0,-0.8,1.9,2470.39,13.28,0.04,130.0
2021-02-19T05:43:03,42.805,6.029,0.024,-0.045,-0.022,102.0,102.0,100.0,13.4,1505.2,324.6,-0.8,1.8,2470.381,13.28,0.051,151.9
2021-02-19T05:46:03,42.805,6.029,0.029,-0.016,-0.022,103.0,102.0,101.0,13.4,1505.2,322.8,-0.8,1.8,2470.388,13.28,0.033,118.9
2021-02-19T05:49:03,42.805,6.029,0.033,-0.032,0.011,101.0,102.0,100.0,13.3,1505.2,324.7,-0.8,1.8,2470.4,13.28,0.045,134.1
2021-02-19T05:52:03,42.805,6.029,0.012,-0.024,0.008,101.0,102.0,100.0,13.4,1505.2,326.9,-0.8,1.8,2470.407,13.28,0.026,153.4
2021-02-19T05:55:03,42.805,6.029,0.021,-0.029,0.02,102.0,101.0,100.0,13.4,1505.2,324.9,-0.7,1.8,2470.427,13.28,0.035,144.1
2021-02-19T05:58:03,42.805,6.029,0.009,-0.032,-0.005,100.0,100.0,101.0,13.4,1505.2,327.9,-0.7,1.8,2470.363,13.28,0.033,164.3
2021-02-19T06:04:03,42.805,6.029,0.017,-0.027,0.016,101.0,101.0,100.0,13.3,1505.2,323.1,-0.7,1.8,2470.44,13.28,0.031,147.8
2021-02-19T06:07:03,42.805,6.029,0.029,-0.038,0.01,102.0,100.0,99.0,13.4,1505.2,326.4,-0.8,1.8,2470.396,13.28,0.047,142.7
2021-02-19T06:10:03,42.805,6.029,0.028,-0.039,0.011,102.0,100.0,100.0,13.4,1505.2,326.3,-0.8,1.8,2470.418,13.28,0.048,144.3
2021-02-19T06:13:03,42.805,6.029,0.017,-0.011,0.01,101.0,101.0,100.0,13.3,1505.2,325.5,-0.7,1.8,2470.435,13.28,0.02,122.9
2021-02-19T06:16:03,42.805,6.029,0.025,-0.034,0.016,101.0,101.0,101.0,13.4,1505.2,324.4,-0.8,1.8,2470.397,13.28,0.042,143.7
2021-02-19T06:19:03,42.805,6.029,-0.002,-0.042,-0.019,101.0,99.0,101.0,13.4,1505.2,325.4,-0.8,1.8,2470.407,13.28,0.042,182.7
2021-02-19T06:22:03,42.805,6.029,0.009,-0.019,0.0,99.0,101.0,102.0,13.4,1505.2,324.5,-0.7,1.9,2470.409,13.28,0.021,154.7
2021-02-19T06:25:03,42.805,6.029,-0.004,-0.028,0.033,101.0,101.0,99.0,13.3,1505.2,327.3,-0.7,1.8,2470.427,13.28,0.028,188.1
2021-02-19T06:28:03,42.805,6.029,0.006,-0.022,0.022,100.0,100.0,101.0,13.3,1505.2,328.0,-0.8,1.8,2470.389,13.28,0.022,164.7
2021-02-19T06:31:03,42.805,6.029,0.022,-0.037,0.007,101.0,101.0,100.0,13.3,1505.2,326.3,-0.8,1.8,2470.432,13.28,0.043,149.3
2021-02-19T06:34:03,42.805,6.029,0.004,-0.031,0.002,102.0,99.0,101.0,13.4,1505.2,326.5,-0.7,1.8,2470.388,13.28,0.031,172.7
2021-02-19T06:37:03,42.805,6.029,-0.011,-0.03,-0.018,101.0,102.0,99.0,13.4,1505.2,325.7,-0.8,1.8,2470.453,13.28,0.031,200.1
2021-02-19T06:40:03,42.805,6.029,0.01,-0.039,-0.013,101.0,102.0,100.0,13.4,1505.2,326.0,-0.8,1.8,2470.404,13.28,0.04,165.6
2021-02-19T06:43:03,42.805,6.029,0.012,-0.015,0.035,101.0,101.0,100.0,13.4,1505.2,324.1,-0.8,1.8,2470.428,13.28,0.019,141.3
2021-02-19T06:46:03,42.805,6.029,0.002,-0.031,0.019,101.0,100.0,98.0,13.3,1505.2,323.7,-0.8,1.8,2470.411,13.28,0.031,176.3
2021-02-19T06:49:03,42.805,6.029,0.018,-0.032,0.012,101.0,101.0,100.0,13.4,1505.2,326.7,-0.8,1.8,2470.383,13.28,0.036,150.6
2021-02-19T06:52:03,42.805,6.029,0.007,-0.019,0.019,102.0,101.0,101.0,13.3,1505.2,326.4,-0.7,1.8,2470.399,13.28,0.02,159.8
2021-02-19T06:55:03,42.805,6.029,0.008,-0.039,0.02,102.0,102.0,100.0,13.3,1505.2,325.6,-0.8,1.8,2470.372,13.28,0.039,168.4
2021-02-19T06:58:03,42.805,6.029,0.002,-0.034,0.026,101.0,103.0,100.0,13.4,1505.2,325.1,-0.8,1.8,2470.402,13.28,0.034,176.6
2021-02-19T07:04:03,42.805,6.029,-0.008,-0.018,-0.003,100.0,102.0,101.0,13.4,1505.2,325.8,-0.7,1.8,2470.415,13.28,0.019,204.0
2021-02-19T07:07:03,42.805,6.029,0.008,-0.03,-0.005,101.0,101.0,100.0,13.4,1505.2,325.9,-0.7,1.8,2470.443,13.28,0.031,165.1
2021-02-19T07:10:03,42.805,6.029,0.006,-0.012,0.02,103.0,101.0,100.0,13.4,1505.2,325.3,-0.7,1.8,2470.44,13.28,0.013,153.4
2021-02-19T07:13:03,42.805,6.029,0.007,-0.024,0.028,102.0,102.0,99.0,13.4,1505.2,328.4,-0.8,1.8,2470.439,13.28,0.025,163.7
2021-02-19T07:16:03,42.805,6.029,0.014,-0.035,-0.001,101.0,103.0,100.0,13.4,1505.2,325.7,-0.8,1.8,2470.488,13.28,0.037,158.2
2021-02-19T07:19:03,42.805,6.029,0.026,-0.039,0.004,101.0,102.0,100.0,13.3,1505.2,326.1,-0.8,1.8,2470.424,13.28,0.046,146.3
2021-02-19T07:22:03,42.805,6.029,0.007,-0.022,0.012,102.0,102.0,100.0,13.4,1505.2,327.7,-0.7,1.8,2470.451,13.28,0.023,162.4
2021-02-19T07:25:03,42.805,6.029,0.007,-0.014,0.028,101.0,104.0,100.0,13.4,1505.2,325.2,-0.8,1.8,2470.422,13.28,0.015,153.4
2021-02-19T07:28:03,42.805,6.029,0.0,-0.03,0.02,100.0,104.0,101.0,13.4,1505.2,325.4,-0.7,1.8,2470.414,13.28,0.03,180.0
2021-02-19T07:31:03,42.805,6.029,-0.021,-0.016,-0.003,101.0,100.0,101.0,13.4,1505.2,326.7,-0.7,1.8,2470.449,13.28,0.026,232.7
2021-02-19T07:34:03,42.805,6.029,0.013,-0.009,0.0,100.0,101.0,100.0,13.3,1505.2,323.1,-0.8,1.8,2470.454,13.28,0.015,124.7
2021-02-19T07:37:03,42.805,6.029,0.005,-0.015,0.006,101.0,100.0,100.0,13.4,1505.2,326.1,-0.8,1.8,2470.463,13.28,0.015,161.6
2021-02-19T07:40:03,42.805,6.029,0.019,0.003,0.039,101.0,101.0,100.0,13.3,1505.2,324.7,-0.8,1.8,2470.479,13.28,0.019,81.0
2021-02-19T07:43:03,42.805,6.029,0.019,-0.026,0.021,102.0,102.0,101.0,13.4,1505.2,324.2,-0.8,1.8,2470.463,13.28,0.032,143.8
2021-02-19T07:46:03,42.805,6.029,-0.014,-0.012,-0.002,103.0,101.0,100.0,13.3,1505.2,326.3,-0.7,1.8,2470.466,13.28,0.018,229.4
2021-02-19T07:49:03,42.805,6.029,0.038,-0.001,0.018,100.0,103.0,100.0,13.3,1505.2,326.4,-0.8,1.8,2470.469,13.28,0.038,91.5
2021-02-19T07:52:03,42.805,6.029,0.028,-0.018,0.012,101.0,101.0,100.0,13.4,1505.2,327.6,-0.8,1.8,2470.44,13.28,0.033,122.7
2021-02-19T07:55:03,42.805,6.029,0.003,-0.012,-0.007,102.0,101.0,101.0,13.4,1505.2,327.2,-0.8,1.8,2470.482,13.28,0.012,166.0
2021-02-19T07:58:03,42.805,6.029,0.005,-0.031,0.0,101.0,101.0,100.0,13.4,1505.2,324.8,-0.8,1.8,2470.488,13.28,0.031,170.8
2021-02-19T08:04:03,42.805,6.029,0.02,-0.035,-0.02,101.0,102.0,100.0,13.4,1505.2,324.6,-0.8,1.8,2470.522,13.28,0.04,150.3
2021-02-19T08:07:03,42.805,6.029,0.029,-0.027,0.005,101.0,102.0,99.0,13.3,1505.2,324.4,-0.7,1.8,2470.538,13.28,0.039,133.0
2021-02-19T08:10:03,42.805,6.029,0.001,-0.032,-0.028,100.0,101.0,100.0,13.4,1505.2,325.6,-0.7,1.9,2470.522,13.28,0.032,178.2
2021-02-19T08:13:03,42.805,6.029,0.032,-0.027,0.029,101.0,101.0,101.0,13.4,1505.2,327.4,-0.7,1.8,2470.491,13.28,0.041,130.2
2021-02-19T08:16:03,42.805,6.029,0.004,-0.006,0.01,102.0,100.0,100.0,13.4,1505.2,326.1,-0.7,1.8,2470.543,13.28,0.007,146.3
2021-02-19T08:19:03,42.805,6.029,0.021,-0.023,0.024,101.0,102.0,101.0,13.4,1505.2,325.1,-0.7,1.8,2470.501,13.28,0.031,137.6
2021-02-19T08:22:03,42.805,6.029,0.025,-0.016,0.015,101.0,102.0,100.0,13.4,1505.2,323.2,-0.8,1.8,2470.494,13.28,0.029,122.6
2021-02-19T08:25:03,42.805,6.029,0.028,-0.025,0.015,100.0,101.0,101.0,13.3,1505.2,324.8,-0.7,1.8,2470.516,13.28,0.037,131.8
2021-02-19T08:28:03,42.805,6.029,0.016,-0.013,-0.005,100.0,103.0,100.0,13.3,1505.2,324.2,-0.7,1.8,2470.499,13.28,0.02,129.1
2021-02-19T08:31:03,42.805,6.029,0.014,-0.027,-0.027,100.0,101.0,101.0,13.4,1505.2,326.3,-0.7,1.8,2470.462,13.28,0.03,152.6
2021-02-19T08:34:03,42.805,6.029,0.006,-0.005,0.029,102.0,102.0,100.0,13.4,1505.2,327.3,-0.8,1.8,2470.514,13.28,0.007,129.8
2021-02-19T08:37:03,42.805,6.029,0.033,-0.032,0.027,100.0,102.0,101.0,13.3,1505.2,327.9,-0.7,1.8,2470.531,13.28,0.045,134.1
2021-02-19T08:40:03,42.805,6.029,0.016,-0.014,0.022,99.0,101.0,100.0,13.4,1505.2,324.2,-0.7,1.8,2470.559,13.28,0.021,131.2
2021-02-19T08:43:03,42.805,6.029,0.021,-0.023,0.013,101.0,100.0,101.0,13.4,1505.2,327.2,-0.8,1.8,2470.503,13.28,0.031,137.6
2021-02-19T08:46:03,42.805,6.029,0.0,-0.004,0.01,100.0,103.0,99.0,13.4,1505.2,322.9,-0.7,1.8,2470.511,13.28,0.004,180.0
2021-02-19T08:49:03,42.805,6.029,0.006,-0.024,0.009,101.0,101.0,101.0,13.4,1505.2,324.8,-0.8,1.8,2470.555,13.28,0.024,166.0
2021-02-19T08:52:03,42.805,6.029,0.027,-0.036,0.001,101.0,101.0,100.0,13.4,1505.2,328.0,-0.8,1.8,2470.52,13.28,0.045,143.1
2021-02-19T08:55:03,42.805,6.029,0.012,-0.007,0.056,101.0,102.0,100.0,13.4,1505.2,323.2,-0.8,1.8,2470.492,13.28,0.013,120.3
2021-02-19T08:58:03,42.805,6.029,0.022,-0.028,0.015,101.0,101.0,101.0,13.4,1505.2,326.7,-0.8,1.8,2470.508,13.28,0.035,141.8
2021-02-19T09:04:03,42.805,6.029,0.026,-0.013,0.017,102.0,101.0,101.0,13.4,1505.2,324.4,-0.8,1.8,2470.577,13.28,0.029,116.6
2021-02-19T09:07:03,42.805,6.029,0.019,-0.013,0.036,101.0,102.0,101.0,13.3,1505.2,324.9,-0.7,1.8,2470.545,13.28,0.023,124.4
2021-02-19T09:10:03,42.805,6.029,0.023,-0.029,0.011,101.0,102.0,101.0,13.4,1505.2,326.8,-0.7,1.8,2470.544,13.28,0.037,141.6
2021-02-19T09:13:03,42.805,6.029,0.018,-0.013,0.047,103.0,102.0,100.0,13.4,1505.2,323.4,-0.7,1.8,2470.568,13.28,0.022,125.8
2021-02-19T09:16:03,42.805,6.029,-0.005,-0.023,-0.026,101.0,101.0,100.0,13.3,1505.2,326.8,-0.7,1.8,2470.561,13.28,0.023,192.3
2021-02-19T09:19:03,42.805,6.029,-0.002,-0.021,0.004,101.0,101.0,100.0,13.3,1505.2,325.3,-0.7,1.8,2470.566,13.28,0.021,185.4
2021-02-19T09:22:03,42.805,6.029,0.006,-0.023,0.01,100.0,102.0,100.0,13.4,1505.2,327.9,-0.8,1.8,2470.542,13.28,0.023,165.4
2021-02-19T09:25:03,42.805,6.029,-0.003,-0.008,0.012,102.0,100.0,101.0,13.4,1505.2,323.1,-0.8,1.8,2470.524,13.28,0.008,200.6
2021-02-19T09:28:03,42.805,6.029,0.04,-0.034,0.005,100.0,102.0,100.0,13.3,1505.2,323.9,-0.7,1.8,2470.535,13.28,0.052,130.4
2021-02-19T09:31:03,42.805,6.029,0.049,-0.02,0.024,100.0,101.0,99.0,13.4,1505.2,326.4,-0.8,1.8,2470.554,13.28,0.052,112.2
2021-02-19T09:34:03,42.805,6.029,-0.017,-0.013,0.007,100.0,99.0,101.0,13.4,1505.2,326.9,-0.8,1.8,2470.534,13.28,0.021,232.6
2021-02-19T09:37:03,42.805,6.029,0.013,-0.009,0.049,102.0,100.0,99.0,13.4,1505.2,326.9,-0.7,1.8,2470.525,13.28,0.015,124.7
2021-02-19T09:40:03,42.805,6.029,0.005,-0.013,0.019,101.0,101.0,100.0,13.4,1505.2,326.5,-0.7,1.8,2470.541,13.28,0.013,159.0
2021-02-19T09:43:03,42.805,6.029,0.038,-0.033,0.034,101.0,101.0,100.0,13.4,1505.2,324.5,-0.7,1.9,2470.574,13.28,0.05,131.0
2021-02-19T09:46:03,42.805,6.029,-0.012,-0.018,0.011,101.0,102.0,101.0,13.4,1505.2,326.6,-0.8,1.8,2470.54,13.28,0.021,213.7
2021-02-19T09:49:03,42.805,6.029,0.01,0.0,0.021,101.0,101.0,100.0,13.4,1505.2,324.3,-0.7,1.8,2470.523,13.28,0.01,90.0
2021-02-19T09:52:03,42.805,6.029,0.009,-0.002,0.044,101.0,101.0,100.0,13.3,1505.2,324.5,-0.7,1.8,2470.586,13.28,0.009,102.5
2021-02-19T09:55:03,42.805,6.029,0.035,-0.016,0.02,101.0,101.0,100.0,13.4,1505.2,326.5,-0.8,1.9,2470.55,13.28,0.038,114.6
2021-02-19T09:58:03,42.805,6.029,-0.009,0.004,0.019,101.0,102.0,100.0,13.3,1505.2,325.1,-0.7,1.8,2470.496,13.28,0.009,294.0